| time (UTC) | temp F | wind direction | speed knots | gust knots | rain 1hr in | rain 24hr in | rain mn in | humidity % | barometer mb |
| 20260504204710 | 82 | 112 | 3.5 | 4.3 | 0.00 | 0.00 | 0.00 | 54 | 1014.0 |
| 20260504204207 | 82 | 111 | 4.3 | 5.2 | 0.00 | 0.00 | 0.00 | 57 | 1014.0 |
| 20260504203706 | 82 | 52 | 5.2 | 6.1 | 0.00 | 0.00 | 0.00 | 54 | 1014.0 |
| 20260504203210 | 82 | 58 | 7.0 | 11.3 | 0.00 | 0.00 | 0.00 | 54 | 1014.0 |
| 20260504202709 | 82 | 42 | 5.2 | 7.0 | 0.00 | 0.00 | 0.00 | 54 | 1014.0 |
| 20260504202209 | 82 | 21 | 5.2 | 7.0 | 0.00 | 0.00 | 0.00 | 54 | 1014.0 |
| 20260504201706 | 82 | 96 | 6.1 | 8.7 | 0.00 | 0.00 | 0.00 | 56 | 1014.0 |
| 20260504201207 | 82 | 108 | 6.1 | 7.8 | 0.00 | 0.00 | 0.00 | 57 | 1014.0 |
| 20260504200707 | 82 | 97 | 10.4 | 13.0 | 0.00 | 0.00 | 0.00 | 54 | 1014.0 |
| 20260504200206 | 81 | 59 | 3.5 | 5.2 | 0.00 | 0.00 | 0.00 | 55 | 1015.0 |
| 20260504195708 | 81 | 73 | 4.3 | 5.2 | 0.00 | 0.00 | 0.00 | 57 | 1014.0 |
| 20260504195207 | 81 | 92 | 7.0 | 7.8 | 0.00 | 0.00 | 0.00 | 58 | 1014.0 |
| 20260504194711 | 82 | 79 | 7.0 | 8.7 | 0.00 | 0.00 | 0.00 | 58 | 1014.0 |
| 20260504194214 | 82 | 122 | 8.7 | 11.3 | 0.00 | 0.00 | 0.00 | 55 | 1015.0 |
| 20260504193708 | 82 | 80 | 6.1 | 9.6 | 0.00 | 0.00 | 0.00 | 54 | 1015.0 |
| 20260504193207 | 82 | 102 | 7.8 | 12.2 | 0.00 | 0.00 | 0.00 | 56 | 1015.0 |
| 20260504192707 | 83 | 101 | 4.3 | 7.8 | 0.00 | 0.00 | 0.00 | 53 | 1015.0 |
| 20260504192209 | 82 | 105 | 2.6 | 6.1 | 0.00 | 0.00 | 0.00 | 54 | 1015.0 |
| 20260504191711 | 82 | 119 | 7.8 | 11.3 | 0.00 | 0.00 | 0.00 | 54 | 1015.0 |
| 20260504191210 | 82 | 52 | 6.1 | 7.8 | 0.00 | 0.00 | 0.00 | 53 | 1015.0 |
| 20260504190707 | 82 | 106 | 7.0 | 10.4 | 0.00 | 0.00 | 0.00 | 55 | 1015.0 |
| 20260504190209 | 82 | 121 | 5.2 | 7.8 | 0.00 | 0.00 | 0.00 | 53 | 1015.0 |
| 20260504185707 | 82 | 110 | 4.3 | 6.1 | 0.00 | 0.00 | 0.00 | 55 | 1015.0 |
| 20260504185207 | 81 | 108 | 7.0 | 9.6 | 0.00 | 0.00 | 0.00 | 53 | 1015.0 |
| 20260504184710 | 82 | 53 | 4.3 | 7.0 | 0.00 | 0.00 | 0.00 | 52 | 1015.0 |
| 20260504184211 | 82 | 69 | 5.2 | 7.0 | 0.00 | 0.00 | 0.00 | 53 | 1015.0 |
| 20260504183707 | 82 | 40 | 6.1 | 7.8 | 0.00 | 0.00 | 0.00 | 52 | 1016.0 |
| 20260504183210 | 82 | 104 | 6.1 | 13.0 | 0.00 | 0.00 | 0.00 | 52 | 1016.0 |
| 20260504182708 | 82 | 25 | 5.2 | 7.8 | 0.00 | 0.00 | 0.00 | 52 | 1015.0 |
| 20260504182211 | 83 | 42 | 3.5 | 7.0 | 0.00 | 0.00 | 0.00 | 51 | 1016.0 |
| 20260504181708 | 82 | 122 | 0.9 | 2.6 | 0.00 | 0.00 | 0.00 | 50 | 1016.0 |
| 20260504181211 | 82 | 124 | 3.5 | 6.1 | 0.00 | 0.00 | 0.00 | 52 | 1016.0 |
| 20260504180707 | 82 | 95 | 7.8 | 12.2 | 0.00 | 0.00 | 0.00 | 53 | 1016.0 |
| 20260504180208 | 81 | 76 | 6.1 | 9.6 | 0.00 | 0.00 | 0.00 | 53 | 1016.0 |
| 20260504175707 | 80 | 58 | 7.0 | 11.3 | 0.00 | 0.00 | 0.00 | 53 | 1016.0 |
| 20260504175208 | 81 | 68 | 7.0 | 11.3 | 0.00 | 0.00 | 0.00 | 54 | 1016.0 |
| 20260504174709 | 81 | 70 | 6.1 | 7.8 | 0.00 | 0.00 | 0.00 | 55 | 1016.0 |
| 20260504174219 | 80 | 69 | 6.1 | 7.8 | 0.00 | 0.00 | 0.00 | 53 | 1016.0 |
| 20260504173709 | 80 | 67 | 7.8 | 13.9 | 0.00 | 0.00 | 0.00 | 53 | 1016.0 |
| 20260504173211 | 80 | 54 | 4.3 | 7.0 | 0.00 | 0.00 | 0.00 | 53 | 1016.0 |
| 20260504172709 | 80 | 57 | 6.1 | 10.4 | 0.00 | 0.00 | 0.00 | 54 | 1016.0 |
| 20260504172209 | 81 | 84 | 9.6 | 11.3 | 0.00 | 0.00 | 0.00 | 53 | 1016.0 |
| 20260504171708 | 81 | 81 | 9.6 | 11.3 | 0.00 | 0.00 | 0.00 | 55 | 1016.0 |
| 20260504171208 | 81 | 81 | 9.6 | 11.3 | 0.00 | 0.00 | 0.00 | 55 | 1017.0 |
| 20260504170708 | 82 | 81 | 9.6 | 11.3 | 0.00 | 0.00 | 0.00 | 53 | 1017.0 |
| 20260504170207 | 81 | 85 | 9.6 | 12.2 | 0.00 | 0.00 | 0.00 | 53 | 1017.0 |
| 20260504160207 | 80 | 9 | 6.1 | 10.4 | 0.00 | 0.00 | 0.00 | 51 | 1017.0 |
| 20260504150706 | 78 | 26 | 9.6 | 13.0 | 0.00 | 0.00 | 0.00 | 56 | 1018.0 |
| 20260504150212 | 78 | 40 | 12.2 | 24.3 | 0.00 | 0.00 | 0.00 | 56 | 1018.0 |
| 20260504141209 | 76 | 39 | 9.6 | 13.0 | 0.00 | 0.00 | 0.00 | 64 | 1017.0 |
| 20260504140711 | 75 | 38 | 8.7 | 11.3 | 0.00 | 0.00 | 0.00 | 65 | 1017.0 |
| 20260504140211 | 76 | 41 | 7.8 | 12.2 | 0.00 | 0.00 | 0.00 | 64 | 1017.0 |
| 20260504130708 | 72 | 35 | 6.1 | 7.8 | 0.00 | 0.00 | 0.00 | 70 | 1017.0 |
| 20260504130210 | 72 | 57 | 5.2 | 7.8 | 0.00 | 0.00 | 0.00 | 70 | 1017.0 |
| 20260504120208 | 66 | 65 | 2.6 | 4.3 | 0.00 | 0.00 | 0.00 | 79 | 1017.0 |
| 20260504110707 | 63 | 21 | 2.6 | 3.5 | 0.00 | 0.00 | 0.00 | 85 | 1016.0 |
| 20260504110209 | 63 | 18 | 2.6 | 3.5 | 0.00 | 0.00 | 0.00 | 85 | 1016.0 |
| 20260504100207 | 63 | 26 | 2.6 | 2.6 | 0.00 | 0.00 | 0.00 | 85 | 1015.0 |
| 20260504081711 | 66 | 182 | 0.9 | 0.9 | 0.00 | 0.00 | 0.00 | 82 | 1015.0 |
| 20260504081210 | 66 | 15 | 1.7 | 2.6 | 0.00 | 0.00 | 0.00 | 82 | 1015.0 |
| 20260504080708 | 66 | 28 | 0.9 | 1.7 | 0.00 | 0.00 | 0.00 | 82 | 1015.0 |
| 20260504080207 | 66 | 23 | 0.0 | 0.0 | 0.00 | 0.00 | 0.00 | 82 | 1015.0 |
| 20260504070207 | 66 | 319 | 0.9 | 1.7 | 0.00 | 0.00 | 0.00 | 83 | 1016.0 |
| 20260504060210 | 66 | 14 | 0.9 | 1.7 | 0.00 | 0.00 | 0.00 | 81 | 1016.0 |
| 20260504050706 | 67 | 49 | 2.6 | 3.5 | 0.00 | 0.00 | 0.00 | 82 | 1016.0 |
| 20260504050209 | 67 | 46 | 1.7 | 3.5 | 0.00 | 0.00 | 0.00 | 82 | 1016.0 |
| 20260504045707 | 67 | 45 | 2.6 | 3.5 | 0.00 | 0.00 | 0.00 | 82 | 1016.0 |
| 20260504045208 | 67 | 34 | 2.6 | 3.5 | 0.00 | 0.00 | 0.00 | 82 | 1017.0 |
| 20260504044707 | 67 | 40 | 1.7 | 2.6 | 0.00 | 0.00 | 0.00 | 81 | 1017.0 |
| 20260504044207 | 67 | 28 | 1.7 | 2.6 | 0.00 | 0.00 | 0.00 | 81 | 1017.0 |
| 20260504043707 | 67 | 24 | 1.7 | 3.5 | 0.00 | 0.00 | 0.00 | 81 | 1017.0 |
| 20260504043207 | 68 | 32 | 1.7 | 3.5 | 0.00 | 0.00 | 0.00 | 81 | 1017.0 |
| 20260504042706 | 68 | 335 | 0.0 | 0.9 | 0.00 | 0.00 | 0.00 | 80 | 1017.0 |
| 20260504042208 | 68 | 234 | 0.0 | 0.0 | 0.00 | 0.00 | 0.00 | 80 | 1017.0 |
| 20260504041709 | 68 | 42 | 0.0 | 0.9 | 0.00 | 0.00 | 0.00 | 80 | 1017.0 |
| 20260504041206 | 68 | 359 | 0.9 | 1.7 | 0.00 | 0.00 | 0.00 | 79 | 1017.0 |
| 20260504040706 | 68 | 13 | 1.7 | 2.6 | 0.00 | 0.00 | 0.00 | 79 | 1017.0 |
| 20260504040207 | 68 | 16 | 0.9 | 1.7 | 0.00 | 0.00 | 0.00 | 79 | 1017.0 |
| 20260504035706 | 68 | 22 | 1.7 | 1.7 | 0.00 | 0.00 | 0.04 | 79 | 1017.0 |
| 20260504035206 | 68 | 26 | 0.9 | 1.7 | 0.00 | 0.00 | 0.04 | 79 | 1017.0 |
| 20260504034706 | 68 | 27 | 1.7 | 1.7 | 0.00 | 0.00 | 0.04 | 78 | 1017.0 |
| 20260504034206 | 69 | 42 | 1.7 | 2.6 | 0.00 | 0.00 | 0.04 | 79 | 1017.0 |
| 20260504033706 | 69 | 29 | 1.7 | 3.5 | 0.00 | 0.00 | 0.04 | 78 | 1017.0 |
| 20260504033206 | 69 | 47 | 1.7 | 2.6 | 0.00 | 0.00 | 0.04 | 78 | 1017.0 |
| 20260504032706 | 69 | 49 | 2.6 | 2.6 | 0.00 | 0.00 | 0.04 | 78 | 1017.0 |
| 20260504032208 | 69 | 49 | 1.7 | 3.5 | 0.00 | 0.00 | 0.04 | 78 | 1017.0 |
| 20260504031224 | 69 | 70 | 1.7 | 2.6 | 0.00 | 0.00 | 0.04 | 78 | 1017.0 |
| 20260504030706 | 69 | 47 | 2.6 | 3.5 | 0.00 | 0.00 | 0.04 | 78 | 1017.0 |
| 20260504030209 | 70 | 68 | 2.6 | 3.5 | 0.00 | 0.00 | 0.04 | 78 | 1017.0 |
| 20260504025707 | 70 | 51 | 2.6 | 3.5 | 0.00 | 0.00 | 0.04 | 77 | 1017.0 |
| 20260504025206 | 70 | 42 | 2.6 | 3.5 | 0.00 | 0.00 | 0.04 | 77 | 1017.0 |
| 20260504024707 | 70 | 79 | 3.5 | 5.2 | 0.00 | 0.00 | 0.04 | 77 | 1017.0 |
| 20260504024206 | 70 | 60 | 3.5 | 5.2 | 0.00 | 0.00 | 0.04 | 77 | 1017.0 |
| 20260504023706 | 70 | 56 | 1.7 | 2.6 | 0.00 | 0.00 | 0.04 | 77 | 1017.0 |
| 20260504023207 | 70 | 75 | 3.5 | 4.3 | 0.00 | 0.00 | 0.04 | 77 | 1017.0 |
| 20260504022706 | 70 | 58 | 3.5 | 4.3 | 0.00 | 0.00 | 0.04 | 76 | 1017.0 |
| 20260504022208 | 70 | 54 | 2.6 | 3.5 | 0.00 | 0.00 | 0.04 | 76 | 1017.0 |
| 20260504021706 | 71 | 68 | 3.5 | 6.1 | 0.00 | 0.00 | 0.04 | 76 | 1017.0 |
| 20260504021207 | 71 | 79 | 5.2 | 7.0 | 0.00 | 0.00 | 0.04 | 76 | 1017.0 |
| 20260504020706 | 71 | 75 | 6.1 | 7.0 | 0.00 | 0.00 | 0.04 | 75 | 1017.0 |
| 20260504020207 | 71 | 77 | 5.2 | 6.1 | 0.00 | 0.00 | 0.04 | 76 | 1017.0 |
| 20260504015706 | 71 | 78 | 6.1 | 7.0 | 0.00 | 0.00 | 0.04 | 76 | 1016.0 |
| 20260504015207 | 71 | 77 | 5.2 | 7.0 | 0.00 | 0.00 | 0.04 | 76 | 1016.0 |
| 20260504014707 | 71 | 81 | 5.2 | 6.1 | 0.00 | 0.00 | 0.04 | 75 | 1017.0 |
| 20260504014206 | 71 | 76 | 5.2 | 6.1 | 0.00 | 0.00 | 0.04 | 75 | 1016.0 |
| 20260504013706 | 71 | 77 | 6.1 | 7.0 | 0.00 | 0.00 | 0.04 | 75 | 1016.0 |
| 20260504013207 | 71 | 74 | 3.5 | 5.2 | 0.00 | 0.00 | 0.04 | 75 | 1016.0 |
| 20260504012707 | 71 | 68 | 5.2 | 6.1 | 0.00 | 0.00 | 0.04 | 75 | 1016.0 |
| 20260504012206 | 72 | 67 | 4.3 | 6.1 | 0.00 | 0.00 | 0.04 | 75 | 1016.0 |
| 20260504011706 | 72 | 61 | 4.3 | 5.2 | 0.00 | 0.00 | 0.04 | 75 | 1016.0 |
| 20260504011207 | 72 | 85 | 3.5 | 6.1 | 0.00 | 0.00 | 0.04 | 75 | 1016.0 |
| 20260504010706 | 72 | 76 | 4.3 | 5.2 | 0.00 | 0.00 | 0.04 | 75 | 1016.0 |
| 20260504010208 | 72 | 82 | 3.5 | 4.3 | 0.00 | 0.00 | 0.04 | 75 | 1016.0 |
| 20260504005707 | 72 | 63 | 4.3 | 7.0 | 0.00 | 0.00 | 0.04 | 75 | 1016.0 |
| 20260504005206 | 72 | 57 | 3.5 | 4.3 | 0.00 | 0.00 | 0.04 | 74 | 1016.0 |
| 20260504004706 | 73 | 53 | 3.5 | 7.0 | 0.00 | 0.00 | 0.04 | 74 | 1016.0 |
| 20260504004206 | 73 | 56 | 5.2 | 7.0 | 0.00 | 0.00 | 0.04 | 74 | 1016.0 |
| 20260504003707 | 73 | 41 | 5.2 | 7.8 | 0.00 | 0.00 | 0.04 | 73 | 1016.0 |
| 20260504003207 | 73 | 40 | 5.2 | 7.0 | 0.00 | 0.00 | 0.04 | 74 | 1016.0 |
| 20260504002706 | 73 | 40 | 6.1 | 7.8 | 0.00 | 0.00 | 0.04 | 73 | 1015.0 |
| 20260504002206 | 74 | 18 | 4.3 | 7.0 | 0.00 | 0.00 | 0.04 | 73 | 1015.0 |
| 20260504001707 | 74 | 0 | 6.1 | 10.4 | 0.00 | 0.00 | 0.04 | 72 | 1015.0 |
| 20260504001206 | 74 | 345 | 7.8 | 13.0 | 0.00 | 0.00 | 0.04 | 72 | 1015.0 |
| 20260504000707 | 74 | 0 | 5.2 | 7.8 | 0.00 | 0.00 | 0.04 | 72 | 1015.0 |
| 20260504000206 | 74 | 0 | 7.8 | 15.6 | 0.00 | 0.00 | 0.04 | 71 | 1015.0 |
| 20260503235706 | 75 | 48 | 6.1 | 11.3 | 0.00 | 0.00 | 0.04 | 71 | 1015.0 |
| 20260503235206 | 75 | 57 | 5.2 | 7.0 | 0.00 | 0.00 | 0.04 | 69 | 1015.0 |
| 20260503234707 | 75 | 70 | 7.0 | 8.7 | 0.00 | 0.00 | 0.04 | 69 | 1015.0 |
| 20260503234210 | 75 | 63 | 5.2 | 7.8 | 0.00 | 0.00 | 0.04 | 69 | 1015.0 |
| 20260503233706 | 75 | 93 | 11.3 | 16.5 | 0.00 | 0.00 | 0.04 | 68 | 1015.0 |
| 20260503233207 | 76 | 89 | 10.4 | 15.6 | 0.00 | 0.00 | 0.04 | 68 | 1015.0 |
| 20260503232707 | 76 | 98 | 11.3 | 13.9 | 0.00 | 0.00 | 0.04 | 67 | 1015.0 |
| 20260503232207 | 76 | 90 | 10.4 | 14.8 | 0.00 | 0.00 | 0.04 | 67 | 1015.0 |
| 20260503231706 | 76 | 96 | 9.6 | 14.8 | 0.00 | 0.00 | 0.04 | 67 | 1015.0 |
| 20260503231209 | 76 | 99 | 14.8 | 20.0 | 0.00 | 0.00 | 0.04 | 66 | 1015.0 |
| 20260503230706 | 76 | 97 | 11.3 | 19.1 | 0.00 | 0.00 | 0.04 | 67 | 1015.0 |
| 20260503230206 | 77 | 100 | 11.3 | 16.5 | 0.00 | 0.00 | 0.04 | 67 | 1015.0 |
| 20260503225707 | 77 | 109 | 10.4 | 14.8 | 0.00 | 0.00 | 0.04 | 67 | 1015.0 |
| 20260503225206 | 78 | 106 | 7.8 | 9.6 | 0.00 | 0.00 | 0.04 | 66 | 1015.0 |
| 20260503224706 | 77 | 88 | 7.8 | 11.3 | 0.00 | 0.00 | 0.04 | 65 | 1015.0 |
| 20260503224206 | 77 | 74 | 7.8 | 9.6 | 0.00 | 0.00 | 0.04 | 66 | 1015.0 |
| 20260503223706 | 77 | 66 | 8.7 | 11.3 | 0.00 | 0.00 | 0.04 | 66 | 1015.0 |
| 20260503223206 | 77 | 69 | 7.8 | 11.3 | 0.00 | 0.00 | 0.04 | 65 | 1015.0 |
| 20260503222706 | 77 | 76 | 6.1 | 7.8 | 0.00 | 0.00 | 0.04 | 65 | 1015.0 |
| 20260503222206 | 77 | 86 | 7.0 | 8.7 | 0.00 | 0.00 | 0.04 | 65 | 1015.0 |
| 20260503221706 | 77 | 92 | 7.0 | 8.7 | 0.00 | 0.00 | 0.04 | 65 | 1015.0 |
| 20260503221206 | 77 | 78 | 7.0 | 12.2 | 0.00 | 0.00 | 0.04 | 67 | 1015.0 |
| 20260503220706 | 77 | 59 | 6.1 | 9.6 | 0.00 | 0.00 | 0.04 | 66 | 1015.0 |
| 20260503220207 | 78 | 54 | 5.2 | 7.8 | 0.00 | 0.00 | 0.04 | 65 | 1015.0 |
| 20260503215706 | 78 | 78 | 7.8 | 10.4 | 0.00 | 0.00 | 0.04 | 65 | 1015.0 |
| 20260503215207 | 78 | 105 | 7.8 | 11.3 | 0.00 | 0.00 | 0.04 | 65 | 1015.0 |
| 20260503214708 | 78 | 124 | 9.6 | 13.9 | 0.00 | 0.00 | 0.04 | 65 | 1015.0 |
| 20260503214206 | 78 | 134 | 9.6 | 15.6 | 0.00 | 0.00 | 0.04 | 64 | 1015.0 |
| 20260503213706 | 78 | 96 | 10.4 | 20.0 | 0.00 | 0.00 | 0.04 | 66 | 1015.0 |
| 20260503213207 | 78 | 77 | 8.7 | 12.2 | 0.00 | 0.00 | 0.04 | 65 | 1015.0 |
| 20260503212706 | 78 | 73 | 6.1 | 7.8 | 0.00 | 0.00 | 0.04 | 64 | 1015.0 |
| 20260503212210 | 78 | 76 | 4.3 | 7.8 | 0.00 | 0.00 | 0.04 | 63 | 1015.0 |
| 20260503211707 | 77 | 64 | 7.8 | 13.0 | 0.00 | 0.00 | 0.04 | 64 | 1015.0 |
| 20260503211207 | 77 | 67 | 8.7 | 13.0 | 0.00 | 0.00 | 0.04 | 66 | 1015.0 |
| 20260503210706 | 77 | 67 | 8.7 | 13.0 | 0.00 | 0.00 | 0.04 | 66 | 1015.0 |
| 20260503210206 | 78 | 42 | 7.8 | 15.6 | 0.00 | 0.00 | 0.04 | 65 | 1015.0 |
| 20260503205707 | 78 | 34 | 5.2 | 7.0 | 0.00 | 0.00 | 0.04 | 62 | 1016.0 |
| 20260503205206 | 78 | 32 | 7.0 | 9.6 | 0.00 | 0.00 | 0.04 | 63 | 1015.0 |